Weather History for Marrakech, Morocco

Change the Weather History Date:

Sunday, January 27, 2013

  Actual Average Record
Temperature  
Mean Temperature 58 °F -  
Max Temperature 72 °F 67 °F 78 °F (2002)
Min Temperature 44 °F 45 °F 35 °F (2007)
Degree Days  
Heating Degree Days 7    
Growing Degree Days 8 (Base 50)    
Moisture  
Dew Point 51 °F    
Average Humidity 86    
Maximum Humidity 100    
Minimum Humidity 41    
Precipitation  
Precipitation 0.00 in 0.05 in - ()
Sea Level Pressure  
Sea Level Pressure 30.27 in    
Wind  
Wind Speed 3 mph ()    
Max Wind Speed 12 mph    
Max Gust Speed -    
Visibility 2.9 miles    
Events Fog    
Averages and records for this station are not official NWS values.
T = Trace of Precipitation, MM = Missing Value Source: Averaged Metar Reports

Daily Weather History Graph

Daily Weather History Graph

Search for Another Location

Airport:

Trip Planner

Search our weather history database for the weather conditions in past years. The results will help you decide how hot, cold, wet, or windy it might be!

Date:

Astronomy

Jan. 27, 2013 Rise Set
Actual Time 7:27 AM WET 6:02 PM WET
Civil Twilight 7:02 AM WET 6:28 PM WET
Nautical Twilight 6:32 AM WET 6:57 PM WET
Astronomical Twilight 6:03 AM WET 7:26 PM WET
Moon 6:37 PM WET (1/27) 7:17 AM WET (1/27)
Length of Visible Light 11h 25m
Length of Day
10h 34m
Full, 100% of the Moon is Illuminated
Jan 27
Full
Feb 3
Last Quarter
Feb 10
New
Feb 17
First Quarter
Feb 25
Full

Hourly Weather History & Observations

Time (WET) Temp. Windchill Dew Point Humidity Pressure Visibility Wind Dir Wind Speed Gust Speed Precip Events Conditions
12:00 AM 51 °F - 50 °F 97% 30.26 in 4 mi East 2.3 mph - -   Scattered Clouds
12:00 AM 51.8 °F - 50.0 °F 94% 30.24 in 3.7 mi East 2.3 mph - N/A   Partly Cloudy
12:30 AM 51.8 °F - 50.0 °F 94% 30.24 in 3.7 mi ENE 3.5 mph - N/A   Scattered Clouds
1:00 AM 51.8 °F - 50.0 °F 94% 30.24 in 3.1 mi Variable 1.2 mph - N/A   Scattered Clouds
1:30 AM 51.8 °F - 51.8 °F 100% 30.24 in 3.7 mi East 4.6 mph - N/A   Scattered Clouds
2:00 AM 51.8 °F - 50.0 °F 94% 30.24 in 3.7 mi SE 4.6 mph - N/A   Scattered Clouds
2:30 AM 48.2 °F - 48.2 °F 100% 30.21 in 3.7 mi East 5.8 mph - N/A   Scattered Clouds
3:00 AM 49 °F - 49 °F 99% 30.24 in 4 mi East 3.5 mph - -   Scattered Clouds
3:00 AM 48.2 °F - 48.2 °F 100% 30.21 in 4.3 mi East 4.6 mph - N/A   Scattered Clouds
3:30 AM 50.0 °F - 48.2 °F 94% 30.21 in 3.7 mi NNE 3.5 mph - N/A   Scattered Clouds
4:00 AM 48.2 °F - 48.2 °F 100% 30.21 in 3.7 mi Variable 1.2 mph - N/A   Unknown
4:30 AM 48.2 °F - 48.2 °F 100% 30.18 in 3.7 mi ENE 4.6 mph - N/A   Unknown
5:00 AM 48.2 °F - 48.2 °F 100% 30.21 in 3.7 mi ESE 6.9 mph - N/A   Unknown
5:06 AM 48.2 °F - 48.2 °F 100% 30.21 in 0.4 mi ESE 5.8 mph - N/A Fog Fog
5:30 AM 48.2 °F - 48.2 °F 100% 30.21 in 0.4 mi ESE 4.6 mph - N/A Fog Fog
6:00 AM 48 °F - 48 °F 99% 30.26 in 0 mi ESE 3.5 mph - - Fog Partial Fog
6:00 AM 48.2 °F - 48.2 °F 100% 30.24 in 0.4 mi ESE 2.3 mph - N/A Fog Fog
6:01 AM 48.2 °F - 48.2 °F 100% 30.24 in 1.2 mi SSE 4.6 mph - N/A   Scattered Clouds
6:18 AM 48.2 °F - 48.2 °F 100% 30.24 in 3.1 mi SSE 5.8 mph - N/A   Scattered Clouds
6:30 AM 48.2 °F - 48.2 °F 100% 30.24 in 3.1 mi SSE 5.8 mph - N/A   Scattered Clouds
7:00 AM 48.2 °F - 48.2 °F 100% 30.24 in 3.7 mi Variable 1.2 mph - N/A   Unknown
7:30 AM 44.6 °F 43.1 °F 44.6 °F 100% 30.24 in - NW 3.5 mph - N/A   Unknown
8:00 AM 46.4 °F - 46.4 °F 100% 30.27 in 1.4 mi Variable 2.3 mph - N/A   Mist
8:04 AM 48.2 °F - 48.2 °F 100% 30.27 in 1.1 mi NNW 3.5 mph - N/A   Scattered Clouds
8:30 AM 46.4 °F - 46.4 °F 100% 30.27 in 0.2 mi Variable 1.2 mph - N/A Fog Fog
9:00 AM 49 °F - 49 °F 99% 30.30 in 0 mi SSW 2.3 mph - -   Partly Cloudy
9:00 AM 48.2 °F - 48.2 °F 100% 30.27 in 0.1 mi Variable 2.3 mph - N/A Fog Fog
9:30 AM 50.0 °F - 50.0 °F 100% 30.27 in 0.1 mi Variable 1.2 mph - N/A Fog Fog
10:00 AM 50.0 °F - 50.0 °F 100% 30.30 in 0.1 mi Variable 2.3 mph - N/A Fog Fog
10:21 AM 53.6 °F - 53.6 °F 100% 30.30 in 0.8 mi Calm Calm - N/A   Mostly Cloudy
10:56 AM 59.0 °F - 53.6 °F 82% 30.30 in 2.2 mi Variable 2.3 mph - N/A   Scattered Clouds
11:00 AM 59.0 °F - 55.4 °F 88% 30.30 in 2.2 mi Variable 1.2 mph - N/A   Scattered Clouds
11:30 AM 60.8 °F - 53.6 °F 77% 30.30 in - WNW 3.5 mph - N/A   Scattered Clouds
12:00 PM 64 °F - 53 °F 59% 30.27 in 3 mi NNW 3.5 mph - -   Partly Cloudy
12:00 PM 64.4 °F - 53.6 °F 68% 30.30 in - North 3.5 mph - N/A   Partly Cloudy
12:30 PM 66.2 °F - 53.6 °F 64% 30.30 in - NNW 3.5 mph - N/A   Partly Cloudy
1:30 PM 68.0 °F - 55.4 °F 64% 30.27 in 3.1 mi West 3.5 mph - N/A   Partly Cloudy
2:00 PM 69.8 °F - 53.6 °F 56% 30.27 in 4.3 mi NW 3.5 mph - N/A   Partly Cloudy
2:30 PM 69.8 °F - 53.6 °F 56% 30.27 in 4.3 mi NNW 3.5 mph - N/A   Partly Cloudy
3:00 PM 72 °F - 53 °F 41% 30.21 in 4 mi NW 3.5 mph - -   Scattered Clouds
3:00 PM 71.6 °F - 51.8 °F 50% 30.27 in 4.3 mi NW 3.5 mph - N/A   Partly Cloudy
3:30 PM 71.6 °F - 51.8 °F 50% 30.27 in 5.0 mi NNW 4.6 mph - N/A   Unknown
4:00 PM 71.6 °F - 51.8 °F 50% 30.27 in 5.0 mi Variable 3.5 mph - N/A   Partly Cloudy
4:30 PM 69.8 °F - 53.6 °F 56% 30.27 in 5.6 mi NNW 5.8 mph - N/A   Partly Cloudy
5:00 PM 71.6 °F - 55.4 °F 57% 30.30 in 5.0 mi NNW 4.6 mph - N/A   Partly Cloudy
5:30 PM 68.0 °F - 53.6 °F 60% 30.30 in 5.0 mi NNW 5.8 mph - N/A   Partly Cloudy
6:30 PM 62.6 °F - 51.8 °F 68% 30.30 in 5.0 mi North 4.6 mph - N/A   Partly Cloudy
7:30 PM 60.8 °F - 53.6 °F 77% 30.33 in 4.3 mi NNE 5.8 mph - N/A   Partly Cloudy
8:00 PM 59.0 °F - 53.6 °F 82% 30.36 in 3.7 mi NNE 11.5 mph - N/A   Unknown
8:30 PM 57.2 °F - 51.8 °F 82% 30.36 in 3.7 mi NE 8.1 mph - N/A   Unknown
9:00 PM 55 °F - 52 °F 86% 30.36 in 3 mi ENE 6.9 mph - -   Clear
9:00 PM 55.4 °F - 51.8 °F 88% 30.36 in 3.1 mi ENE 6.9 mph - N/A   Unknown
9:30 PM 55.4 °F - 51.8 °F 88% 30.36 in 3.1 mi ENE 5.8 mph - N/A   Unknown
10:00 PM 53.6 °F - 51.8 °F 94% 30.36 in 3.1 mi East 6.9 mph - N/A   Unknown
10:30 PM 53.6 °F - 51.8 °F 94% 30.36 in 3.1 mi ESE 6.9 mph - N/A   Unknown
11:00 PM 51.8 °F - 50.0 °F 94% 30.36 in 3.1 mi East 5.8 mph - N/A   Unknown
11:30 PM 53.6 °F - 51.8 °F 94% 30.36 in 3.1 mi East 6.9 mph - N/A   Unknown